CW7731 Weather Reports


time (UTC)temp
C
wind
direction
speed
KPH
gust
KPH
rain 1hr
cm
rain 24hr
cm
rain mn
cm
humidity
%
barometer
mb
20260505061105 16 2 0.0 14.5 0.00 0.00 0.00 80 1012.1
20260505060114 16 5 1.6 14.5 0.00 0.00 0.00 80 1012.1
20260505055132 15 14 0.0 1.6 0.00 0.00 0.00 79 1012.1
20260505054140 15 13 0.0 6.4 0.00 0.00 0.00 79 1012.1
20260505053128 15 18 0.0 9.7 0.00 0.00 0.00 79 1012.0
20260505052138 16 29 1.6 14.5 0.00 0.00 0.00 79 1011.9
20260505041133 16 23 0.0 8.0 0.00 0.00 0.00 65 1011.6
20260505035116 16 25 0.0 6.4 0.00 0.00 0.00 65 1011.8
20260505034132 16 3 0.0 8.0 0.00 0.00 0.00 66 1011.8
20260505033144 16 38 0.0 9.7 0.00 0.00 0.00 67 1011.8
20260505032127 16 23 1.6 11.3 0.00 0.00 0.00 68 1011.9
20260505031124 16 14 0.0 9.7 0.00 0.00 0.00 69 1011.9
20260505030141 16 26 1.6 9.7 0.00 0.00 0.00 70 1011.9
20260505025123 16 39 0.0 12.9 0.00 0.00 0.00 70 1012.0
20260505024136 16 14 0.0 0.0 0.00 0.00 0.00 69 1012.2
20260505023105 15 17 0.0 0.0 0.00 0.00 0.00 73 1012.2
20260505022114 15 310 0.0 1.6 0.00 0.00 0.00 74 1012.3
20260505021132 15 311 0.0 1.6 0.00 0.00 0.00 74 1012.3
20260505020112 15 308 0.0 4.8 0.00 0.00 0.00 74 1012.4
20260505015146 15 324 0.0 0.0 0.00 0.00 0.00 72 1012.4
20260505014132 16 1 0.0 3.2 0.00 0.00 0.00 71 1012.5
20260505013144 16 21 0.0 1.6 0.00 0.00 0.00 72 1012.6
20260505012128 15 9 0.0 0.0 0.00 0.00 0.00 73 1012.6
20260505011131 15 9 0.0 0.0 0.00 0.00 0.00 73 1012.6
20260505010110 15 31 0.0 3.2 0.00 0.00 0.00 75 1012.7
20260504235128 14 225 0.0 0.0 0.00 0.00 0.00 74 1013.5
20260504234102 15 225 0.0 3.2 0.00 0.00 0.00 74 1013.6
20260504233124 15 225 0.0 0.0 0.00 0.00 0.00 73 1013.6
20260504232107 15 225 0.0 0.0 0.00 0.00 0.00 73 1013.8
20260504231107 15 225 0.0 1.6 0.00 0.00 0.00 72 1013.8
20260504230101 15 225 0.0 1.6 0.00 0.00 0.00 72 1013.9
20260504225139 15 225 0.0 0.0 0.00 0.00 0.00 71 1014.0
20260504224141 15 225 0.0 0.0 0.00 0.00 0.00 70 1014.0
20260504223123 15 225 0.0 0.0 0.00 0.00 0.00 69 1014.1
20260504222145 15 225 0.0 1.6 0.00 0.00 0.00 68 1014.1
20260504221136 15 171 0.0 0.0 0.00 0.00 0.00 68 1014.2
20260504220114 16 171 0.0 0.0 0.00 0.00 0.00 67 1014.2
20260504215140 16 171 0.0 0.0 0.00 0.00 0.00 66 1014.2
20260504210112 16 171 0.0 0.0 0.00 0.00 0.00 63 1014.4
20260504205122 16 171 0.0 0.0 0.00 0.00 0.00 63 1014.4
20260504204116 17 169 0.0 0.0 0.00 0.00 0.00 61 1014.3
20260504203108 17 169 0.0 0.0 0.00 0.00 0.00 59 1014.3
20260504202115 17 169 0.0 0.0 0.00 0.00 0.00 58 1014.2
20260504201134 17 169 0.0 0.0 0.00 0.00 0.00 59 1014.1
20260504200139 17 169 0.0 0.0 0.00 0.00 0.00 59 1014.1
20260504195132 18 169 0.0 0.0 0.00 0.00 0.00 57 1014.1
20260504194118 18 164 0.0 0.0 0.00 0.00 0.00 53 1013.9
20260504171113 23 190 0.0 0.0 0.00 0.00 0.00 43 1012.8
20260504170110 23 190 0.0 9.7 0.00 0.00 0.00 43 1012.9